Location: Sternwarte Stuttgart
(48.7670°N, 9.1830°E)
Time: 02:04:54
(UTC+02:00)

Daily predictions for brighter satellites

Satellite Brightness Start Highest point End
(mag) Time Altitude Azimuth Time Altitude Azimuth Time Altitude Azimuth
Tiangong 2 3.8 00:02:43 10° WSW 00:02:46 10° WSW 00:02:46 10° WSW
NOSS 3-1 (C) 4.0 00:00:05 10° NW 00:07:32 77° SW 00:12:45 25° SSE
Cosmos-2242 3.1 00:04:02 10° N 00:08:20 65° ENE 00:09:50 38° SSE
SME Rocket 3.2 00:06:53 32° SSE 00:09:03 77° ENE 00:12:59 10° NNW
Cosmos 1470 2.7 00:05:32 10° N 00:09:33 81° E 00:10:48 43° SSE
Lacrosse 5 rocket 1.5 00:05:50 10° NW 00:10:29 81° SW 00:12:31 34° SE
Cosmos 1331 Rocket 4.0 00:06:48 10° NNW 00:11:57 69° WSW 00:14:15 33° S
Cosmos 1934 Rocket 4.0 00:08:38 10° N 00:15:03 88° E 00:18:28 30° S
Cosmos 1110 Rocket 4.3 00:10:26 10° NNW 00:15:36 58° WSW 00:17:55 31° S
Cosmos 1707 3.0 00:18:48 44° SE 00:19:34 52° E 00:23:20 10° NNE
Cosmos 1302 Rocket 4.0 00:15:44 10° NNW 00:21:02 86° ENE 00:23:25 34° SSE
SL-16 R/B 2.3 00:15:45 10° NNW 00:21:24 68° WSW 00:23:59 33° S
Lacrosse 5 2.1 00:28:08 37° S 00:29:35 47° SE 00:34:28 10° ENE
Cosmos 2221 4.3 00:26:17 10° NNE 00:29:45 23° ENE 00:31:37 18° ESE
CZ-2C R/B 3.3 00:29:50 32° SSE 00:32:30 74° ENE 00:38:15 10° N
SeaSat 1 2.5 00:31:28 31° SE 00:33:51 73° ENE 00:38:48 10° NNW
Cosmos 389 Rocket 4.1 00:32:48 10° NW 00:35:40 24° W 00:36:27 22° WSW
USA 234 3.7 00:30:05 10° ESE 00:36:32 63° NNE 00:42:59 10° NW
BREEZE-M DEB (TANK) 2.3 00:37:23 48° SSW 00:38:03 63° SSE 00:45:09 10° ENE
ATLAS 2AS CENTAUR R/B 3.7 00:33:03 10° NW 00:41:01 52° NE 00:48:33 10° ESE
Cosmos 972 4.5 00:35:44 10° NNW 00:41:16 78° WSW 00:43:16 38° S
NOSS 3-1 (A) 4.1 00:33:55 10° NW 00:41:21 67° SW 00:45:58 28° SSE
IKONOS-2 4.5 00:45:36 46° SSE 00:46:52 89° ENE 00:51:12 10° NNW
Cosmos 2322 3.8 00:41:54 10° NNW 00:47:36 74° ENE 00:50:28 30° SE
Cosmos 2251 Rocket 3.6 00:46:36 28° SSW 00:49:29 78° WNW 00:54:55 10° NNE
ATLAS CENTAUR R/B 2.3 00:46:41 10° WNW 00:49:42 27° WSW 00:49:42 27° WSW
ISS -3.3 00:50:54 10° WNW 00:54:10 60° NNE 00:56:01 23° E
Cosmos 2098 Rocket 3.6 00:52:46 10° NNW 00:57:20 65° W 00:59:34 35° SSW
Cosmos 1833 4.4 00:55:39 36° SSE 00:57:38 54° ESE 01:03:11 10° NE
Cosmos 1842 Rocket 3.5 00:54:44 10° N 00:59:15 84° W 01:00:33 46° S
Cosmos 2360 Rocket 2.1 00:53:57 10° NNW 00:59:39 81° WSW 01:02:04 36° SSE
Cosmos 1980 Rocket 4.3 00:57:15 10° WNW 00:59:46 13° W 01:02:16 10° WSW
Cosmos 2219 4.4 01:03:31 23° SE 01:05:02 26° ESE 01:09:37 10° NE
COSMOS 2428 3.1 01:00:32 10° NNW 01:06:15 60° ENE 01:09:46 23° SE
Intercosmos 25 3.1 01:03:25 10° N 01:06:38 58° E 01:06:54 55° ESE
Meteor 2-5 Rocket 4.0 01:07:19 31° SSW 01:10:19 72° WNW 01:16:17 10° N
Cosmos 1339 Rocket 4.5 01:08:29 33° S 01:11:34 86° W 01:17:59 10° N
Cosmos 2322 Rocket 3.4 01:07:21 10° NW 01:12:11 29° WSW 01:14:03 24° SW
Cosmos 1727 Rocket 4.0 01:10:42 32° SSW 01:13:47 80° W 01:20:06 10° N
Cosmos 1605 Rocket 4.5 01:11:28 10° NNW 01:17:17 47° W 01:20:07 28° SSW
Cosmos 1378 3.9 01:17:13 37° WSW 01:18:05 45° WNW 01:21:43 10° N
Meteor 2-15 4.5 01:16:33 32° SSW 01:19:31 75° W 01:25:37 10° N
Spot 2 4.5 01:20:24 10° NNE 01:25:33 83° WNW 01:27:40 37° SSW
CZ-4B R/B 1.5 01:26:12 56° E 01:26:23 58° ENE 01:29:31 10° N
CZ-2C R/B 3.0 01:21:34 10° N 01:27:07 62° WNW 01:29:56 29° SW
H-2A R/B 3.8 01:24:57 10° NE 01:28:43 29° E 01:29:51 26° ESE
Cosmos 2173 Rocket 3.9 01:27:00 10° N 01:33:09 86° W 01:35:58 34° S
CZ-4C R/B 3.1 01:32:48 59° SSW 01:33:16 67° WSW 01:36:57 10° NNW
Cosmos 1340 Rocket 3.1 01:33:49 46° SE 01:34:31 54° E 01:38:23 10° NNE
ALOS 2 3.8 01:35:43 27° WSW 01:36:42 29° W 01:40:34 10° NNW
Cosmos 2333 Rocket 2.8 01:32:41 10° NNW 01:38:19 53° NE 01:42:49 16° SE
Cosmos 2219 Rocket 2.5 01:36:37 10° NNW 01:42:19 66° ENE 01:46:08 21° SE
USA 267 3.2 01:36:19 10° NE 01:42:55 86° SSE 01:48:21 16° SW
Meteor 1-24 Rocket 4.1 01:40:26 30° SSW 01:43:27 63° WNW 01:49:28 10° N
Cosmos 2297 Rocket 4.2 01:43:43 12° SE 01:46:14 15° E 01:49:23 10° ENE
Lacrosse 5 rocket 3.5 01:46:09 10° W 01:48:11 16° WSW 01:48:11 16° WSW
Cosmos 1908 3.1 01:45:40 10° N 01:49:37 85° W 01:50:27 54° S
SAR-Lupe-2 3.9 01:50:22 47° WSW 01:50:38 48° W 01:54:09 10° NNW
Cosmos 1356 Rocket 4.3 01:49:52 32° SE 01:50:55 38° E 01:54:43 10° NNE
Cosmos 1242 Rocket 3.1 01:48:50 10° N 01:52:19 52° ENE 01:53:13 40° ESE
Cosmos 1459 Rocket 4.2 01:47:19 10° NNW 01:53:36 62° W 01:56:36 32° SSW
Cosmos 1689 Rocket 2.3 01:54:40 60° W 01:54:40 60° W 01:57:40 10° NNW
Cosmos 2084 Rocket 4.0 01:54:07 25° WSW 01:56:09 49° NW 01:59:57 10° NE
Okean 3 Rocket 3.7 01:55:13 42° SSW 01:56:41 73° W 02:01:16 10° N
Cosmos 1408 Rocket 3.8 01:58:56 39° SSE 02:00:17 60° E 02:04:34 10° NNE
Aureole 2 Rocket 4.1 01:57:36 10° N 02:01:23 38° ENE 02:04:13 17° ESE
Cosmos 407 Rocket 3.8 02:00:34 35° SSE 02:02:30 55° ESE 02:07:31 10° NNE
Cosmos 2237 Rocket 2.7 01:57:36 10° NNW 02:03:11 57° ENE 02:08:11 13° SE
Landsat 5 3.9 02:02:56 41° SSW 02:04:13 55° W 02:08:42 10° NNW
SL-16 R/B 4.3 02:02:59 10° W 02:04:24 11° W 02:05:50 10° WSW
SL-16 R/B 3.9 02:00:00 10° NNW 02:05:03 31° NE 02:10:05 10° ESE
Cosmos 1864 Rocket 4.5 01:59:44 10° N 02:06:04 87° E 02:09:36 28° S
Cosmos 2221 3.3 02:03:28 10° NNW 02:07:29 39° W 02:08:28 33° SW
Cosmos 1766 Rocket 3.5 02:07:45 42° S 02:09:10 77° E 02:13:32 10° NNE
SeaSat 1 4.0 02:11:15 19° WSW 02:11:50 19° WSW 02:15:23 10° WNW
Lacrosse 5 2.6 02:07:38 10° WSW 02:12:36 52° NNW 02:17:34 10° NE
Cosmos 1674 2.8 02:14:32 47° SW 02:15:28 66° WNW 02:19:19 10° N
Cosmos 1802 Rocket 4.4 02:11:06 10° NNW 02:17:06 49° W 02:20:00 29° SSW
Cosmos 2016 Rocket 4.3 02:11:37 10° NNW 02:17:52 57° W 02:21:00 30° SSW
Cosmos 1726 2.1 02:15:09 10° N 02:18:57 82° E 02:20:00 46° SSE
USA 234 3.3 02:13:56 14° SE 02:19:38 58° SW 02:26:05 10° WNW
Cosmos 676 Rocket 4.4 02:18:45 31° S 02:21:04 55° ESE 02:26:14 10° NNE
Cosmos 1190 Rocket 4.0 02:20:42 34° SSW 02:23:06 89° ESE 02:28:27 10° NNE
Cosmos 2227 Rocket 3.1 02:20:59 24° SSE 02:23:41 37° ESE 02:28:51 10° NE
Cosmos 1515 Rocket 3.8 02:20:09 10° N 02:24:34 63° ENE 02:26:47 28° SSE
NOSS 2-1 (D) 4.5 02:28:20 26° SE 02:29:12 29° ESE 02:32:54 10° ENE
Cosmos 1743 Rocket 3.9 02:28:14 32° SSE 02:30:07 60° E 02:34:29 10° NNE
ISS -1.9 02:27:30 10° WNW 02:28:36 19° W 02:28:36 19° W
SL-08 R/B 4.5 02:26:51 11° SE 02:31:20 42° ENE 02:36:01 10° N
PSLV R/B 3.5 02:27:36 10° NNE 02:31:52 75° ESE 02:33:28 37° S
ATLAS 2AS CENTAUR R/B 3.1 02:24:25 10° NW 02:32:14 56° WSW 02:37:21 21° S
Cosmos 1076 Rocket 4.2 02:31:14 30° SW 02:32:48 43° WNW 02:37:00 10° N
CZ-2D R/B 4.4 02:30:46 10° NE 02:33:55 16° E 02:37:05 10° SE
SL-14 R/B 3.6 02:32:53 35° SSE 02:34:24 63° E 02:38:27 10° NNE
Cosmos 1300 2.6 02:31:46 10° NNW 02:35:37 80° W 02:36:51 41° S
Cosmos 2151 3.9 02:34:19 24° SSE 02:36:21 41° E 02:40:21 10° NNE
SL-16 R/B 3.8 02:32:07 10° SE 02:37:42 38° ENE 02:43:20 10° N
Cosmos 1184 Rocket 4.3 02:38:42 23° W 02:39:25 25° WNW 02:42:14 10° NNW
Cosmos 2360 Rocket 4.1 02:40:02 10° WNW 02:42:43 14° W 02:43:49 13° WSW
NOSS 3-3 (A) 4.1 02:39:53 28° SSW 02:43:23 72° SE 02:50:09 10° NE
NOSS 3-3 (C) 4.1 02:40:00 28° SSW 02:43:31 71° SE 02:50:15 10° NE
Cosmos 2219 3.6 02:45:25 23° SW 02:48:49 57° WNW 02:54:23 10° NNE
COSMOS 2428 3.9 02:45:28 10° NW 02:50:06 26° WSW 02:51:46 23° SW
Cosmos 2123 Rocket 4.3 02:47:04 26° SW 02:50:34 56° WNW 02:56:41 10° N
NOSS 2-1 (E) 4.0 02:50:45 30° SSE 02:52:06 42° ESE 02:56:20 10° NE
Cosmos 2208 Rocket 4.3 02:47:30 10° NNW 02:52:42 67° ENE 02:57:54 10° SSE
Cosmos 1151 Rocket 2.9 02:49:35 10° N 02:53:57 86° W 02:56:16 27° S
Cosmos 1328 Rocket 3.9 02:49:48 10° NNW 02:54:06 49° W 02:55:50 31° SSW
Cosmos 2082 4.1 02:52:20 24° S 02:55:32 55° ESE 03:01:02 10° NE
Cosmos 1447 Rocket 4.5 02:52:34 25° S 02:56:27 85° W 03:02:49 10° N
ERBS 2.3 02:56:52 35° WSW 02:58:11 77° NNW 03:01:35 10° NE
Cosmos 2233 Rocket 4.1 02:52:03 10° NNW 02:58:18 63° W 03:02:15 23° SSW
Helios 1A Rocket 2.9 02:55:48 10° NNE 02:59:59 81° WNW 03:01:57 31° SSW
Cosmos 614 Rocket 4.2 02:57:25 25° S 03:00:24 64° ESE 03:05:36 10° NNE
H-2A R/B 3.7 03:00:26 10° N 03:04:15 33° WNW 03:06:28 21° WSW
Cosmos 1140 Rocket 3.5 03:02:09 26° SSW 03:05:07 84° ESE 03:10:22 10° NNE
NOSS 0 Rocket 4.4 03:02:38 10° NW 03:08:24 41° WSW 03:11:52 22° SSW
SL-8 R/B 3.6 03:07:11 16° WSW 03:10:55 76° SSE 03:15:43 10° E
Cosmos 2058 2.9 03:10:41 27° S 03:12:53 85° E 03:17:03 10° N
IRS-P3 4.2 03:07:40 10° NNE 03:13:01 74° ESE 03:16:42 21° S
Cosmos 1072 Rocket 4.5 03:07:25 10° N 03:13:35 88° ENE 03:19:04 14° S
Meteor 1-27 4.3 03:08:18 10° NNW 03:14:06 70° W 03:18:25 18° S
Meteor 1-11 4.2 03:12:18 22° SSW 03:16:07 87° W 03:21:57 10° NNE
Cosmos 2228 Rocket 4.1 03:12:27 10° NNW 03:16:28 32° W 03:18:19 23° SW
Cosmos 1455 2.4 03:13:59 10° N 03:17:53 72° E 03:20:50 17° SSE
Cosmos 2333 Rocket 3.2 03:17:26 10° NW 03:22:17 29° WSW 03:24:47 21° SW
Cosmos 1850 Rocket 4.1 03:19:38 21° S 03:23:04 73° ESE 03:28:15 10° NNE
Cosmos 1707 Rocket 4.0 03:20:52 10° N 03:25:13 60° ENE 03:29:34 10° SSE
USA 267 4.1 03:19:24 10° ENE 03:25:41 51° NNW 03:31:57 10° W
Cosmos 2219 Rocket 3.5 03:21:25 10° NW 03:25:46 23° WSW 03:27:48 19° SW
Cosmos 1980 4.5 03:23:35 10° NW 03:28:38 34° WSW 03:31:46 20° SSW
NOSS 7 (D) 4.3 03:27:28 28° SW 03:29:06 85° SE 03:32:30 10° NE
Cosmos 2297 Rocket 2.2 03:25:31 21° SSW 03:29:25 88° ESE 03:35:08 10° NNE
Cosmos 1741 Rocket 4.1 03:26:42 20° SSW 03:30:25 81° ESE 03:35:47 10° NNE
Cosmos 1626 2.1 03:31:01 24° SSW 03:33:09 74° W 03:36:54 10° N
Cosmos 1464 Rocket 3.9 03:27:11 10° NNW 03:33:21 74° W 03:38:54 13° S
Aureole 2 Rocket 4.1 03:33:13 10° NW 03:36:30 24° WSW 03:37:49 20° SW
NPP 3.7 03:32:21 10° NNE 03:37:46 77° WNW 03:41:53 18° SSW
CBERS-1 4.0 03:35:27 10° NNE 03:40:35 78° WNW 03:44:31 17° SSW
UNK 3.7 03:36:42 10° SSE 03:41:18 90° WSW 03:45:58 10° NNW
ADEOS 4.2 03:37:40 10° NNE 03:42:47 52° E 03:47:53 10° S
Cosmos 1666 Rocket 4.1 03:39:40 12° S 03:43:41 56° E 03:48:05 10° NNE
Cosmos 1570 Rocket 4.4 03:38:43 10° NNW 03:43:49 45° WSW 03:48:18 13° S
Lacrosse 4 Rocket 2.4 03:42:35 15° S 03:45:40 39° ESE 03:49:38 10° NE
Cosmos 2237 Rocket 3.2 03:42:17 10° NW 03:46:53 26° WSW 03:49:57 17° SSW
ARIANE 5 R/B 3.0 03:42:16 10° NNE 03:47:19 58° E 03:52:14 10° S
SL-16 R/B 2.3 03:43:56 10° NW 03:49:29 55° WSW 03:55:00 10° S
COBE Rocket 3.9 03:45:09 10° NNE 03:49:50 73° E 03:54:04 12° S
ATLAS 5 CENTAUR R/B 4.3 03:48:55 10° SE 03:50:20 11° ESE 03:51:47 10° E
Resurs 1-4 Rocket 2.4 03:45:05 10° NNE 03:50:25 68° ESE 03:55:34 11° S
Cosmos 1869 3.3 03:47:52 10° N 03:51:57 88° WSW 03:55:57 10° S
Cosmos 1356 3.7 03:52:59 19° SSW 03:55:17 57° WNW 03:58:46 10° N
Lacrosse 5 3.6 03:51:52 10° WNW 03:56:26 32° N 04:01:00 10° ENE
Cosmos 1703 4.1 03:57:11 17° SW 03:59:46 37° WNW 04:03:28 10° N
Cosmos 1805 Rocket 3.6 03:56:25 15° SSW 04:00:01 69° W 04:04:27 10° N
ADEOS Rocket 3.6 03:54:49 10° NNE 04:02:18 86° WNW 04:10:06 10° SSW
BREEZE-M DEB 3.2 04:02:11 15° SW 04:05:04 34° SSE 04:07:11 10° E
Cosmos 2227 Rocket 3.0 04:02:48 12° WSW 04:07:41 43° NW 04:13:06 10° NNE
SL-08 R/B 4.4 04:05:51 14° SSW 04:09:18 29° W 04:13:35 10° NW
AQUA 4.4 04:05:03 10° N 04:09:36 46° WNW 04:13:38 13° SW
USA 161 3.1 04:08:29 10° SE 04:10:06 22° ENE 04:11:42 10° NNE
CZ-2D R/B 4.4 04:09:01 10° NNE 04:12:56 45° E 04:16:54 10° S
CZ-2D R/B 2.1 04:09:23 10° NNE 04:14:38 80° WNW 04:19:53 10° SSW
Cosmos 1943 4.2 04:09:27 10° NNW 04:14:58 52° NE 04:20:27 10° SE
Cosmos 371 Rocket 3.3 04:10:27 10° NNW 04:15:18 87° WSW 04:20:06 10° SSE
UNKNOWN OBJECT B 3.3 04:14:16 10° NNE 04:18:16 60° E 04:22:10 10° S
Cosmos 841 Rocket 3.7 04:13:52 10° NNW 04:19:11 78° ENE 04:24:28 10° SSE
SL-16 R/B 2.9 04:15:22 10° S 04:21:15 45° W 04:27:11 10° NNW
Okean O Rocket 4.1 04:19:05 10° NE 04:22:10 19° E 04:25:13 10° SE
Meteor 2-10 Rocket 3.8 04:18:02 10° N 04:23:03 69° ENE 04:28:05 10° SSE
NOSS 3-4 (A) 4.1 04:17:24 10° NW 04:24:03 47° WSW 04:31:06 10° S
NOSS 3-4 (C) 4.1 04:17:30 10° NW 04:24:10 48° WSW 04:31:13 10° S
Sich 1 3.3 04:21:29 10° SSW 04:25:45 56° WNW 04:30:04 10° N
Cosmos 2263 Rocket 4.2 04:21:40 10° SSE 04:25:57 23° ESE 04:30:16 10° NE
Cosmos 1633 Rocket 3.1 04:22:41 10° SSW 04:27:01 65° WNW 04:31:22 10° N
Spot 4 Rocket 4.3 04:22:51 10° N 04:27:54 56° WNW 04:32:54 10° SW
Cosmos 1470 Rocket 3.8 04:24:04 10° S 04:28:21 69° E 04:32:41 10° NNE
Cosmos 468 Rocket 4.4 04:23:30 10° NW 04:28:24 42° WSW 04:33:13 10° S
ERBS 4.4 04:32:26 10° WNW 04:35:17 24° NNW 04:38:08 10° NE
Cosmos 220 Rocket 4.4 04:37:17 10° S 04:41:41 65° ESE 04:46:07 10° NNE
IRS-1D 4.1 04:37:50 10° N 04:42:58 47° WNW 04:48:00 10° SW
Cosmos 304 Rocket 4.4 04:41:49 10° NNW 04:46:39 64° ENE 04:51:24 10° SE
Cosmos 1763 Rocket 3.7 04:42:44 10° NNW 04:47:49 51° WSW 04:52:48 10° S
DELTA 2 R/B (1) 4.4 04:44:17 10° WSW 04:49:11 32° S 04:54:05 10° ESE
Cosmos 332 Rocket 4.5 04:46:31 10° NW 04:50:54 35° WSW 04:55:16 10° SSW
